Showing default

ANTELSAT, 40034

Orbit data source: Space-Track

ANTELSAT, 40034 is an Uruguayan payload satellite in SSO that was launched on Thu, 19 Jun 2014 UTC via a DNEPR launch vehicle from the Orenburg, Russia (OREN). Payload-class satellites include a variety of spacecraft equipped with specific instruments for various scientific and technological missions. These include communications satellites like Starlink; space stations such as the ISS; scientific satellites like the Hubble; Earth observation satellites from companies like Planet Labs, Umbra, and HawkEye 360; GPS; miniature CubeSats for education and research; and military/defense satellites.

Loading next visibility...
Identifier
40034, 2014-033AA
Orbit
SSO
Country
Flag of UYUY / URY
Related business
Manufacturer
UdelaR FING
Mission
Non-operational Civil Tech/Com
Bus & Motor
CUBESAT 2U, Unknown motor
Mass
~2 kg wet, ~2 kg dry
Launch date (UTC)
2014-06-19 (11 years ago)
Launch vehicle
DNEPR
Launch site
Orenburg, Russia (OREN)
Object type
Payload
Rocket body
Debris
Shape & HBR
Box + 1 Ant, 0.1 m
Radar Cross Section
0.040 m², Medium (>0.1 m² and < 1m²)

Expand to show TLE details & history
Last TLE update: 1 day ago

TLE from 1 day ago
0 ANTELSAT
1 40034U 14033AA  25287.44441206  .00007101  00000-0  75769-3 0  9997
2 40034  97.7504  82.7073 0046130 148.2963 212.1047 14.88346719609226
Epoch: 2025-10-14T10:39Z
TLE epoch observation values (Epoch: 2025-10-14T10:39:57.201Z)
Latitude
-0.00005°
Longitude
-100.51378°
Altitude
633.466 km
Speed
7.527 km/s
True Right ascension
05h 30m 49s
True Declination
0° 00' 00"
Sunlit
Object was in full shadow at epoch
Visualization orbit readout
Latitude
Unknown
Longitude
Unknown
Altitude
Unknown
Speed
Unknown
Apparent Right ascension
Unknown
Apparent Declination
Unknown
Sunlit
N/A
Visualization observer readout
Local Sidereal Time
09:07:41
Azimuth
Unknown
Elevation
Unknown
Doppler factor
Unknown
Orbital elements
Apogee altitude
632.314 km
Perigee altitude
567.933 km
Semi-major axis
6,978.261 km
Eccentricity
0.00461
Inclination
97.7504°
RAAN
82.7073°
Arg. of periapsis
148.2963°
True anomaly
211.82513°
Mean anomaly
212.1047°
Eccentric anomaly
211.96478°
Mean motion
3.72325 °/min
Orbital period
96.69 mins
BSTAR
0.00075769
Loading maneuver chart data...
Computing Atmospheric mass density...
Loading historical data...
Loading historical data...
Loading historical data...
Loading historical data...
Loading historical data...
Loading historical data...
Loading historical data...

Documentation

Showing up to 5 results
|